Change the Weather History Date:

Thursday, June 20, 2013

  Actual Average Record
Temperature  
Mean Temperature 81 °F 80 °F  
Max Temperature 92 °F 91 °F 100 °F (1953)
Min Temperature 69 °F 69 °F 57 °F (1965)
Degree Days  
Heating Degree Days 0 0  
Month to date heating degree days 0 0  
Since 1 June heating degree days 0 0  
Since 1 July heating degree days 2332 2351  
Cooling Degree Days 16 15  
Month to date cooling degree days 280 266  
Year to date cooling degree days 610 636  
Since 1 June cooling degree days 280 266  
Growing Degree Days 30 (Base 50)    
Moisture  
Dew Point 72 °F    
Average Humidity 75    
Maximum Humidity 100    
Minimum Humidity 49    
Precipitation  
Precipitation 0.00 in 0.11 in 2.88 in (1961)
Month to date precipitation 5.14 2.50  
Year to date precipitation 40.46 27.80  
Sea Level Pressure  
Sea Level Pressure 30.08 in    
Wind  
Wind Speed 1 mph (ENE)    
Max Wind Speed 6 mph    
Max Gust Speed 9 mph    
Visibility 8 miles    
Events      
T = Trace of Precipitation, MM = Missing Value Source: NWS Daily Summary

Daily Weather History Graph

Daily Weather History Graph

Search for Another Location

Airport or City:

Trip Planner

Search our weather history database for the weather conditions in past years. The results will help you decide how hot, cold, wet, or windy it might be!

Date:

Astronomy

Jun. 20, 2013 Rise Set
Actual Time 5:57 AM CDT 8:14 PM CDT
Civil Twilight 5:29 AM CDT 8:42 PM CDT
Nautical Twilight 4:54 AM CDT 9:17 PM CDT
Astronomical Twilight 4:16 AM CDT 9:55 PM CDT
Moon 5:22 PM CDT (6/20) 3:16 AM CDT (6/20)
Length of Visible Light 15h 13m
Length of Day
14h 16m
Waxing Gibbous, 89% of the Moon is Illuminated
Jun 20
Waxing Gibbous
Jun 23
Full
Jun 29
Last Quarter
Jul 8
New
Jul 15
First Quarter

Hourly Weather History & Observations

Time (CDT) Temp. Heat Index Dew Point Humidity Pressure Visibility Wind Dir Wind Speed Gust Speed Precip Events Conditions
12:53 AM 73.0 °F - 71.1 °F 93% 30.05 in 10.0 mi Calm Calm - N/A   Clear
1:53 AM 71.1 °F - 70.0 °F 96% 30.05 in 5.0 mi Calm Calm - N/A   Clear
2:53 AM 70.0 °F - 69.1 °F 97% 30.04 in 7.0 mi Calm Calm - N/A   Clear
3:11 AM 69.8 °F - 69.8 °F 100% 30.02 in 1.8 mi Calm Calm - N/A   Clear
3:34 AM 71.6 °F - 69.8 °F 94% 30.02 in 9.0 mi Calm Calm - N/A   Clear
3:53 AM 70.0 °F - 69.1 °F 97% 30.04 in 8.0 mi Calm Calm - N/A   Clear
4:40 AM 69.8 °F - 69.8 °F 100% 30.04 in 1.8 mi Calm Calm - N/A   Clear
4:53 AM 70.0 °F - 69.1 °F 97% 30.06 in 1.2 mi Calm Calm - N/A   Clear
5:01 AM 69.8 °F - 69.8 °F 100% 30.04 in 3.0 mi Calm Calm - N/A   Clear
5:53 AM 69.1 °F - 68.0 °F 96% 30.07 in 0.8 mi Calm Calm - N/A   Clear
6:20 AM 69.8 °F - 69.8 °F 100% 30.06 in 2.0 mi Calm Calm - N/A   Clear
6:29 AM 71.6 °F - 69.8 °F 94% 30.06 in 4.0 mi Calm Calm - N/A   Clear
6:53 AM 73.9 °F - 72.0 °F 93% 30.09 in 6.0 mi Calm Calm - 0.01 in   Clear
7:53 AM 77.0 °F - 73.9 °F 90% 30.12 in 10.0 mi Calm Calm - N/A   Partly Cloudy
8:53 AM 80.1 °F 85.1 °F 75.0 °F 85% 30.13 in 10.0 mi Calm Calm - N/A   Mostly Cloudy
9:43 AM 82.4 °F 89.5 °F 75.2 °F 79% 30.12 in 10.0 mi Calm Calm - N/A   Mostly Cloudy
9:53 AM 82.0 °F 87.9 °F 73.9 °F 76% 30.14 in 10.0 mi Calm Calm - N/A   Overcast
10:43 AM 82.4 °F 88.2 °F 73.4 °F 74% 30.12 in 10.0 mi Calm Calm - N/A   Scattered Clouds
10:53 AM 84.0 °F 90.2 °F 73.0 °F 69% 30.14 in 10.0 mi Calm Calm - N/A   Partly Cloudy
11:53 AM 86.0 °F 92.2 °F 72.0 °F 63% 30.13 in 10.0 mi Calm Calm - N/A   Partly Cloudy
12:53 PM 88.0 °F 95.6 °F 73.0 °F 61% 30.12 in 10.0 mi Calm Calm - N/A   Scattered Clouds
1:53 PM 87.1 °F 95.4 °F 73.9 °F 65% 30.11 in 10.0 mi Variable 3.5 mph - N/A   Scattered Clouds
2:53 PM 90.0 °F 99.0 °F 73.9 °F 59% 30.09 in 10.0 mi NE 4.6 mph - N/A   Clear
3:53 PM 91.0 °F 97.6 °F 71.1 °F 52% 30.08 in 10.0 mi NE 3.5 mph - N/A   Clear
4:53 PM 91.0 °F 95.6 °F 69.1 °F 48% 30.06 in 10.0 mi ENE 3.5 mph - N/A   Clear
5:53 PM 90.0 °F 94.5 °F 69.1 °F 50% 30.06 in 10.0 mi Calm Calm - N/A   Clear
6:53 PM 88.0 °F 94.7 °F 72.0 °F 59% 30.06 in 10.0 mi Calm Calm - N/A   Clear
7:53 PM 82.9 °F 90.2 °F 75.0 °F 77% 30.06 in 10.0 mi Calm Calm - N/A   Clear
8:53 PM 78.1 °F - 73.9 °F 87% 30.08 in 10.0 mi ESE 3.5 mph - N/A   Clear
9:53 PM 77.0 °F - 73.9 °F 90% 30.09 in 10.0 mi Calm Calm - N/A   Clear
10:53 PM 73.9 °F - 73.0 °F 97% 30.10 in 7.0 mi Calm Calm - N/A   Clear
11:53 PM 73.0 °F - 72.0 °F 96% 30.11 in 7.0 mi Calm Calm - N/A   Clear